Regional Weather Roundup
Issued by NWS Little Rock, AR

Home | Current Version | Previous Version | Text Only | Print | Product List | Glossary On
Versions: 1 2 3 4 5 6 7 8 9 10 11 12 13 14 15 16 17 18 19 20 21 22 23 24 25 26 27 28 29 30 31 32 33 34 35 36 37 38 39 40 41 42 43 44 45 46 47 48 49 50
000
ASUS44 KLZK 230005
RWRLZK

WEATHER ROUNDUP FOR ARKANSAS
NATIONAL WEATHER SERVICE LITTLE ROCK AR
700 PM CDT MON SEP 22 2014

NOTE: "FAIR" INDICATES FEW OR NO CLOUDS BELOW 12,000 FEET WITH NO
SIGNIFICANT WEATHER AND/OR OBSTRUCTIONS TO VISIBILITY.

ARZ001-003-010-029-230100-
NORTHWEST ARKANSAS

CITY           SKY/WX    TMP DP  RH WIND       PRES   REMARKS
FAYETTEVILLE   PTCLDY    70  52  52 CALM      30.21R
6HR MIN TEMP:  69; 6HR MAX TEMP:  75;

FORT SMITH     CLEAR     74  54  49 E7        30.17S
6HR MIN TEMP:  73; 6HR MAX TEMP:  79;

HARRISON       CLEAR     67  52  58 E5        30.22F
6HR MIN TEMP:  67; 6HR MAX TEMP:  74;

BENTONVILLE    PTCLDY    70  52  52 NE7       30.22S
6HR MIN TEMP:  70; 6HR MAX TEMP:  73;

ROGERS         PTCLDY    69  52  54 N5        30.23S
6HR MIN TEMP:  69; 6HR MAX TEMP:  73;

SILOAM SPGS    CLEAR     70  50  49 CALM      30.22S
6HR MIN TEMP:  70; 6HR MAX TEMP:  73;

HIGHFILL       PTCLDY    70  53  54 NE3       30.21S
6HR MIN TEMP:  70; 6HR MAX TEMP:  74;

SPRINGDALE     PTCLDY    70  54  56 NE6       30.23S
$$

ARZ004-005-016-230100-
NORTH CENTRAL ARKANSAS

CITY           SKY/WX    TMP DP  RH WIND       PRES   REMARKS
BATESVILLE     CLEAR     72  48  43 NE3       30.19S
6HR MIN TEMP:  72; 6HR MAX TEMP:  79;

FLIPPIN        CLEAR     70  48  46 CALM      30.21S
6HR MIN TEMP:  70; 6HR MAX TEMP:  75;

MTN HOME       CLEAR     65  54  67 CALM      30.21S
6HR MIN TEMP:  65; 6HR MAX TEMP:  75;

$$

ARZ040-041-230100-
WEST CENTRAL ARKANSAS

CITY           SKY/WX    TMP DP  RH WIND       PRES   REMARKS
MENA           CLEAR     72  55  56 CALM      30.18S
MOUNT IDA      CLEAR     69  58  67 CALM      30.16S
6HR MIN TEMP:  69; 6HR MAX TEMP:  79;

$$

ARZ009-017-025-026-028-230100-
NORTHEAST ARKANSAS

CITY           SKY/WX    TMP DP  RH WIND       PRES   REMARKS
CORNING          N/A     66  54  63 NE6       30.20S
JONESBORO      CLEAR     69  51  52 NE6       30.19R
6HR MIN TEMP:  69; 6HR MAX TEMP:  78;

NEWPORT        CLEAR     69  51  52 NE6       30.20S HAZE
6HR MIN TEMP:  69; 6HR MAX TEMP:  77;

WALNUT RIDGE   CLEAR     66  52  59 E6        30.19S
6HR MIN TEMP:  66; 6HR MAX TEMP:  75;

BLYTHEVILLE    CLEAR     65  52  62 N7        30.19S
6HR MIN TEMP:  65; 6HR MAX TEMP:  78;

$$

ARZ022-023-033-042-044-230100-
CENTRAL ARKANSAS

CITY           SKY/WX    TMP DP  RH WIND       PRES   REMARKS
LITTLE ROCK    PTCLDY    72  52  49 E6        30.17S
6HR MIN TEMP:  72; 6HR MAX TEMP:  80;

N LITTLE ROCK  PTCLDY    71  55  56 E7        30.17S
6HR MIN TEMP:  71; 6HR MAX TEMP:  81;

JACKSONVILLE   CLEAR     71  54  54 E3        30.17S
6HR MIN TEMP:  71; 6HR MAX TEMP:  81;

SEARCY         CLEAR     71  51  49 NE9       30.19S
6HR MIN TEMP:  72; 6HR MAX TEMP:  80;

HOT SPRINGS    CLEAR     74  52  46 NE5       30.17S
6HR MIN TEMP:  74; 6HR MAX TEMP:  79;

RUSSELLVILLE   CLEAR     70  54  56 E3        30.17S
6HR MIN TEMP:  70; 6HR MAX TEMP:  80;

CLINTON        FAIR      70  57  64 CALM      30.19F
$$

ARZ036-230100-
EAST ARKANSAS

CITY           SKY/WX    TMP DP  RH WIND       PRES   REMARKS
WEST MEMPHIS   CLEAR     70  52  52 NE7       30.16S
6HR MIN TEMP:  70; 6HR MAX TEMP:  78;

$$

ARZ050-053-066-070-073-230100-
SOUTHWEST ARKANSAS

CITY           SKY/WX    TMP DP  RH WIND       PRES   REMARKS
ARKADELPHIA    FAIR      73  58  59 CALM      30.16S
6HR MIN TEMP:  73; 6HR MAX TEMP:  80;

CAMDEN         CLEAR     73  54  49 N5        30.14S
TEXARKANA      CLEAR     74  52  46 NE6       30.14S
6HR MIN TEMP:  74; 6HR MAX TEMP:  80;

EL DORADO      CLEAR     73  54  51 N6        30.14S
6HR MIN TEMP:  73; 6HR MAX TEMP:  82;

DE QUEEN       CLEAR     73  56  54 E3        30.13S
6HR MIN TEMP:  73; 6HR MAX TEMP:  81;

$$

ARZ056-057-069-230100-
SOUTHEAST ARKANSAS

CITY           SKY/WX    TMP DP  RH WIND       PRES   REMARKS
PINE BLUFF     CLEAR     72  52  49 N7        30.16R
6HR MIN TEMP:  72; 6HR MAX TEMP:  80;

STUTTGART      CLEAR     68  52  56 N8        30.17S
6HR MIN TEMP:  68; 6HR MAX TEMP:  79;

MONTICELLO     CLEAR     74  52  46 N5        30.14R
6HR MIN TEMP:  74; 6HR MAX TEMP:  81;


$$





USA.gov is the U.S. government's official web portal to all federal, state and local government web resources and services.